(161) Athor
ephemeris date magn radius delta ra dec elong phase
Today27 Jun 202614.62.575 AU2.827 AU10h51m+09°55'65.4°21.0°
Opposition12 Jul 202711.62.072 AU1.080 AU19h42m-39°10'162.4°8.5°
(161) Athor - 2026-06-27
astro.vanbuitenen.nl


 
-1 year
-1 month
-1 day
Now
+1 day
+1 month
+1 year

The interactive orbit chart above shows the body's path through the solar system and its position at the given date. Green and blue lines are shown perpendicular to the ecliptic plane: Green if the path is above the ecliptic plane, blue if it is below. (Left-click and drag to rotate the view; Right-click and drag to move the view; Use scroll wheel to zoom in our out.)

The orbital elements of Athor are:

            e (Eccentricity)                : 0.1380661
            a (Semimajor axis)              : 2.3791190
            i (Inclination)                 : 9.05356
            Ω (Longitude of ascending node) : 18.42090
            ω (Argument of perihelion)      : 295.48466
            M (Mean anomaly)                : 234.97919
            Epoch                           : 2026 Jun 09

            L (Longitude of perihelion)     : -45.81435
            B (Latitude of perihelion)      : -8.16631
            P (Orbital period in years)     : 3.67            
        

The light curve chart below shows the estimated development of the minor planet's magnitude.


The all-sky chart below shows the path of the minor planet over the same period as the light curve. The current position is marked yellow.





The following chart shows the path of the minor planet in the next few days. The field of view is optimized for (~10x50) binoculars and finderscopes.




Ephemerides:
Date       Time       RA (2000)    DEC (2000)    delta   radius  elong  phase   PA    magn
2026-06-27 00:00 UT   10 51 17.3   +09 55 12     2.827    2.575   65.4   21.0   111   14.6 
2026-06-27 17:37 UT   10 52 08.4   +09 48 03     2.834    2.574   64.9   21.0   111   14.6 
2026-06-28 00:00 UT   10 52 27.0   +09 45 28     2.837    2.574   64.8   20.9   111   14.6 
2026-06-29 00:00 UT   10 53 37.3   +09 35 40     2.848    2.572   64.1   20.8   111   14.6 
2026-06-30 00:00 UT   10 54 48.0   +09 25 49     2.858    2.571   63.5   20.7   111   14.6 
2026-07-01 00:00 UT   10 55 59.3   +09 15 56     2.869    2.570   62.9   20.6   111   14.6 
2026-07-02 00:00 UT   10 57 11.0   +09 06 00     2.879    2.569   62.3   20.5   111   14.7 
2026-07-03 00:00 UT   10 58 23.3   +08 56 01     2.889    2.568   61.7   20.4   111   14.7 
2026-07-04 00:00 UT   10 59 36.0   +08 45 60     2.900    2.567   61.0   20.3   111   14.7 
2026-07-05 00:00 UT   11 00 49.1   +08 35 55     2.910    2.565   60.4   20.2   111   14.7 
2026-07-06 00:00 UT   11 02 02.8   +08 25 48     2.920    2.564   59.8   20.0   111   14.7 
2026-07-07 00:00 UT   11 03 16.9   +08 15 39     2.930    2.563   59.2   19.9   111   14.7 
2026-07-08 00:00 UT   11 04 31.4   +08 05 26     2.940    2.562   58.6   19.8   112   14.7 
2026-07-09 00:00 UT   11 05 46.4   +07 55 11     2.950    2.561   58.0   19.7   112   14.7 
2026-07-10 00:00 UT   11 07 01.8   +07 44 54     2.959    2.559   57.4   19.6   112   14.7 
2026-07-11 00:00 UT   11 08 17.7   +07 34 33     2.969    2.558   56.8   19.4   112   14.7 
2026-07-12 00:00 UT   11 09 34.0   +07 24 10     2.979    2.557   56.2   19.3   112   14.7 
2026-07-13 00:00 UT   11 10 50.7   +07 13 45     2.988    2.556   55.6   19.2   112   14.7 
2026-07-14 00:00 UT   11 12 07.9   +07 03 17     2.998    2.555   55.0   19.0   112   14.7 
2026-07-15 00:00 UT   11 13 25.4   +06 52 46     3.007    2.553   54.4   18.9   112   14.7 
2026-07-16 00:00 UT   11 14 43.3   +06 42 14     3.016    2.552   53.9   18.8   112   14.7 
2026-07-17 00:00 UT   11 16 01.7   +06 31 38     3.025    2.551   53.3   18.6   112   14.7 
2026-07-18 00:00 UT   11 17 20.4   +06 21 00     3.034    2.550   52.7   18.5   112   14.7 
2026-07-19 00:00 UT   11 18 39.5   +06 10 20     3.043    2.549   52.1   18.3   112   14.7 
2026-07-20 00:00 UT   11 19 59.0   +05 59 38     3.052    2.547   51.5   18.2   112   14.7 
2026-07-21 00:00 UT   11 21 18.8   +05 48 54     3.061    2.546   50.9   18.1   112   14.7 


    Terminology:
            
    delta:  distance between minor planet and earth in AU
    radius: distance between minor planet and sun in AU
    magn:   magnitude (brightness) estimate    
    ra:     right ascension in hours (24h = 360deg)
    dec:    declination in degrees
    elong:  elongation in degrees (angle sun-earth-minor planet)    
    phase:  phase angle in degrees (angle sun-minor planet-earth)        
    AU:     Astronomical Unit (mean distance between earth and sun: 149597870.7 km
    

Orbital elements provided by the MPC (Minor Planet Center).
Calculations by a modified version of AAPlus, a C# implementation of the AA+ project by PJ Naughter from the algorithms presented in the book "Astronomical Algorithms" by Jean Meeus.
NGC2000 dso catalog and star labels from VizieR as provided by the Strasbourg astronomical Data Center.
Tycho2 catalog from the ESO archive.